Location: Caltech
(34.1382°N, 118.1253°W)
Time: 13:59:02
(UTC-07:00)

Lacrosse 5 - Visible Passes

Search period start: 18 April 2014 00:00
Search period end: 28 April 2014 00:00
Orbit: 707 x 720 km, 57.0° (Epoch: 17 April)

Date Brightness Start Highest point End Pass type
(mag) Time Alt. Az. Time Alt. Az. Time Alt. Az.
18 Apr 4.1 04:09:51 10° NNW 04:13:55 24° NE 04:17:57 10° E visible
18 Apr 2.0 05:52:07 10° NW 05:56:58 50° SW 06:01:46 10° SSE visible
18 Apr 1.9 20:15:02 10° SSW 20:19:57 55° SE 20:24:53 10° NE visible
18 Apr 4.2 21:59:05 10° W 22:03:04 23° NW 22:07:03 10° NNE visible
19 Apr 4.8 03:15:51 10° N 03:18:34 14° NNE 03:21:16 10° ENE visible
19 Apr 2.0 04:57:07 10° NW 05:02:08 78° NE 05:07:07 10° SE visible
19 Apr 3.2 21:03:08 10° WSW 21:07:53 41° NW 21:12:39 10° NNE visible
20 Apr 3.2 04:02:26 10° NNW 04:07:08 39° NE 04:11:49 10° ESE visible
20 Apr 2.8 05:45:37 10° WNW 05:49:47 27° WSW 05:53:55 10° S visible
20 Apr 2.0 20:07:50 10° SW 20:12:54 81° NW 20:17:58 10° NE visible
20 Apr 4.8 21:53:36 10° WNW 21:56:27 15° NNW 21:59:18 10° N visible
21 Apr 4.1 03:08:04 10° NNW 03:11:57 22° NE 03:15:49 10° E visible
21 Apr 1.8 04:50:10 10° NW 04:55:05 57° SW 04:59:57 10° SSE visible
21 Apr 4.2 20:56:58 10° W 21:01:06 25° NW 21:05:15 10° NNE visible
22 Apr 4.7 02:14:10 10° N 02:16:34 13° NNE 02:18:57 10° ENE visible
22 Apr 2.0 03:55:13 10° NW 04:00:14 70° NE 04:05:12 10° SE visible
22 Apr 3.4 05:39:59 10° W 05:42:30 14° WSW 05:45:01 10° SSW visible
22 Apr 3.1 20:01:07 10° WSW 20:05:57 45° NW 20:10:48 10° NNE visible
23 Apr 3.7 03:00:36 10° NNW 03:08:05 20° E 03:09:47 10° ESE visible
23 Apr 2.5 04:47:48 30° WSW 04:47:55 30° WSW 04:52:14 10° S visible
23 Apr 4.7 20:51:20 10° WNW 20:54:27 16° NW 20:57:34 10° N visible
24 Apr 4.6 02:06:16 10° N 02:07:25 14° N 02:07:25 14° N visible
24 Apr 4.1 19:54:51 10° W 19:59:08 27° NW 20:03:26 10° NNE visible
25 Apr 4.9 01:12:32 10° N 01:13:18 11° NNE 01:13:18 11° NNE visible
25 Apr 5.0 20:46:47 10° NW 20:47:56 11° NNW 20:49:05 10° NNW visible
27 Apr 4.8 01:04:29 10° N 01:05:04 12° N 01:05:04 12° N visible
